Location: Brienzwiler
(46.7508°N, 8.1014°E)
Time: 01:43:57
(UTC+00:00)

Cosmos 1603 - Pass Details

Date: 05 July 2020
Orbit: 830 x 861 km, 71.0° (Epoch: 11 August)

Event Time Altitude Azimuth Distance (km) Brightness Sun altitude
Exits shadow 23:36:02 32° 142° (SE) 1,402 4.4 -20.6°
Maximum altitude 23:37:36 39° 107° (ESE) 1,249 4.4 -20.6°
Drops below altitude 10° 23:42:52 10° 40° (NE) 2,489 6.9 -20.5°
Sets 23:45:28 0° 33° (NNE) 3,434 7.9 -20.5°
